Terug naar catalogus

CZ-2C YXX STAGE 2

ActiefSSO
NORAD 67647·ROCKET BODY·🇨🇳 China
Deze satellietnaam is nog niet bevestigd door officiële bronnen.

Gelanceerd Jan 31, 2026 vanaf Jiuquan Satellite Launch Center

Loading…

Volgende Passages (komende 24 uur)

TLE

VersSource: Space-Track

Epoch: Sep 14, 2026, 11:26 UTC

1 67647U 26021B   26257.47678756  .00008590  00000-0  23488-3 0  9993
2 67647  97.6368 337.3060 0140930  68.2559 293.3612 15.28121628 34497

Volg CZ-2C YXX STAGE 2 in realtime met AllMySat

Download on the App Store